Regional Weather Roundup
Issued by NWS

Home | Current Version | Previous Version | Text Only | Print | Product List | Glossary On
Versions: 1 2 3 4 5 6 7 8 9 10 11 12 13 14 15 16 17 18 19 20 21 22 23 24 25 26 27 28 29 30 31 32 33 34 35 36 37 38 39 40 41 42 43 44 45 46 47 48 49 50
000
ASUS43 KMPX 010010
RWRMN
WEATHER ROUNDUP FOR MINNESOTA
NATIONAL WEATHER SERVICE TWIN CITIES/CHANHASSEN MN
600 PM CST SUN FEB 28 2021


NOTE: "FAIR" INDICATES FEW OR NO CLOUDS BELOW 12,000 FEET WITH NO
SIGNIFICANT WEATHER AND/OR OBSTRUCTIONS TO VISIBILITY. N/A MEANS
CURRENT SKY AND/OR WEATHER CONDITIONS ARE NOT AVAILABLE.

MNZ060>063-068>070-010100-
   Twin Cities Metro

CITY           SKY/WX    TMP DP  RH WIND       PRES   REMARKS
TWIN CITIES    CLEAR     25  13  60 W15       29.97R WCI  13
6HR MIN TEMP:  25; 6HR MAX TEMP:  32;

ST PAUL        CLEAR     27  14  58 W16G24    29.98R WCI  15
CRYSTAL        CLEAR     23  12  62 W14G28    29.97R WCI  11
BLAINE         CLEAR     27  16  63 W18G26    29.95R WCI  13
LAKEVILLE      CLEAR     21  16  79 W16       29.98R WCI   7
EDEN PRAIRIE   CLEAR     23  12  62 W15       29.98R WCI  10
6HR MIN TEMP:  23; 6HR MAX TEMP:  31;

SOUTH ST PAUL  CLEAR     27  16  61 W12       29.96R WCI  17
$$
MNZ001>005-007-008-013>017-022>024-027-028-010100-
   Northwest Minnesota

CITY           SKY/WX    TMP DP  RH WIND       PRES   REMARKS
BEMIDJI        CLOUDY    13   6  73 NW14      29.98R WCI  -2
HALLOCK        MOCLDY    12   3  67 N12       30.08R WCI  -2
ROSEAU         PTCLDY    16   0  48 W9        30.01R WCI   4
WARROAD        PTCLDY    12   1  62 W10       30.00R WCI  -1
THIEF RVR FALL CLOUDY    13   5  70 NW12      30.05R WCI  -1
CROOKSTON      MOCLDY    16   5  62 N12       30.07R WCI   3
FOSSTON        MOCLDY    12   3  67 NW10      30.02R WCI  -1
DETROIT LAKES  MOCLDY    18   9  68 NW10G16   30.00R WCI   6
MOORHEAD       PTCLDY    21   9  58 NW10      30.06R WCI  10
PARK RAPIDS    MOCLDY    17   7  64 NW16      29.96R WCI   2
MAHNOMEN       CLOUDY    16   9  72 N12       30.01R WCI   3
$$
MNZ006-009>011-018-025>026-010100-
   North Central Minnesota

CITY           SKY/WX    TMP DP  RH WIND       PRES   REMARKS
BAUDETTE       PTCLDY    12   1  61 W9        29.96R WCI   0
FLAG ISLAND    PTCLDY    10  -2  56 NW18      29.98R WCI  -8
INTL FALLS     MOCLDY    12   0  58 NW10      29.93R WCI  -1
6HR MIN TEMP:  12; 6HR MAX TEMP:  17;

WASKISH        MOCLDY    12   3  67 W8        29.98R WCI   1
BIG FORK       MOCLDY    16   3  57 W8        29.98R WCI   5
LONGVILLE      MOCLDY    16   7  67 NW7       29.96R WCI   6
GRAND RAPIDS   PTCLDY    17   5  59 NW14      29.94R WCI   3
CRANE LAKE       N/A     12   1  62 NW9       29.94R WCI   0
ORR            MOCLDY    12   0  57 NW10G16   29.89R WCI  -1
COOK           MOCLDY    14   3  62 NW9       29.90R WCI   2
WALKER         MOCLDY    16   7  66 NW7       29.96R WCI   6
$$
MNZ012-019>021-037-010100-
   Northeast Minnesota

CITY           SKY/WX    TMP DP  RH WIND       PRES   REMARKS
DULUTH         PTCLDY    21   5  50 NW12      29.84R WCI   9
6HR MIN TEMP:  21; 6HR MAX TEMP:  28;

ELY            PTCLDY    14   1  57 W18G25    29.85R WCI  -3
HIBBING        PTCLDY    16   4  59 NW16      29.89R WCI   1
EVELETH        PTCLDY    18   5  57 NW13G22   29.88R WCI   4
DULUTH HARBOR  CLEAR     25  10  54 NW24      29.90R HAZE    WCI   9
TWO HARBORS    CLEAR     21   5  49 NW6       29.84R WCI  14
SILVER BAY     CLEAR     19   1  45 W13G23    29.82R WCI   7
GRAND MARAIS     N/A     24   8  50 W15G23    29.79R WCI  11
G MARAIS ARPRT CLEAR     16   3  57 W10G25    29.69R WCI   3
$$
MNZ029>031-032-039>041-046>048-054>057-064-010100-
   West Central Minnesota

CITY           SKY/WX    TMP DP  RH WIND       PRES   REMARKS
FERGUS FALLS   PTCLDY    19  12  73 NW10      30.00R WCI   8
WHEATON        PTCLDY    25  12  58 N6        30.06S WCI  18
MORRIS         CLEAR     23  12  63 N9        30.04R WCI  13
ALEXANDRIA     PTCLDY    20  11  68 W14       30.00R WCI   7
ELBOW LAKE     FAIR      20  12  71 W12       30.03R WCI   8
WADENA         PTCLDY    16   9  73 NW8       29.99R WCI   5
GLENWOOD       CLEAR     19  14  79 W10G17    30.01R WCI   8
APPLETON       PTCLDY    25  16  68 NW6       30.05R WCI  18
BENSON         CLEAR     19  14  79 N6        30.05R WCI  11
ORTONVILLE     PTCLDY    28  14  54 NW7       30.04R WCI  21
MADISON        PTCLDY    27  16  63 CALM      30.07R
WILLMAR        FAIR      21  16  79 W7        30.06R WCI  13
$$
MNZ033>034-036-042>043-049>051-058-059-010100-
   Central Minnesota

CITY           SKY/WX    TMP DP  RH WIND       PRES   REMARKS
ST CLOUD       CLEAR     21   9  59 W16G23    29.98R WCI   7
6HR MIN TEMP:  21; 6HR MAX TEMP:  27;

SAUK CENTRE      N/A     19  11  71 W9        30.01R WCI   7
PAYNESVILLE    CLEAR     19  14  79 W8        30.02R WCI   9
AITKIN         PTCLDY    19   7  58 NW7       29.94R WCI  10
PINE RIVER     MOCLDY    21   9  58 W6        29.99R WCI  14
BRAINERD       PTCLDY    22   3  44 NW10G21   29.96R WCI  11
STAPLES        PTCLDY    19  10  68 W9        29.98S WCI   9
LONG PRAIRIE   FAIR      19   9  63 NW8       30.00R WCI   9
LITTLE FALLS   CLEAR     19   3  49 W10G16    30.00R WCI   8
CAMP RIPLEY    FAIR      19   6  57 NW13      30.00R WCI   6
LITCHFIELD     CLEAR     19  14  79 W8        30.02R WCI   9
BUFFALO        CLEAR     20  11  68 MISG      30.01R
MAPLE LAKE       N/A     19  12  73 W13       30.01R WCI   7
HUTCHINSON     MOCLDY    21  15  78 W12G18    30.03R WCI   9
$$
MNZ037-044-045-052-053-010100-
   East Central Minnesota

CITY           SKY/WX    TMP DP  RH WIND       PRES   REMARKS
PRINCETON      CLEAR     23   9  54 W13       29.96R WCI  11
MORA           CLEAR     27  10  50 W13G18    29.95R WCI  16
CAMBRIDGE      CLEAR     25  10  54 W14G20    29.96R WCI  13
RUSH CITY      CLEAR     24  13  60 W8        29.94R WCI  16
MOOSE LAKE     CLEAR     23   9  54 NW8       29.89R WCI  14
HINCKLEY       CLEAR     28   9  43 NW10G16   29.92R WCI  19
CLOQUET        CLEAR     19   3  49 W16G23    29.86R WCI   5
MCGREGOR       CLEAR     21   7  53 W15G21    29.93R WCI   8
$$
MNZ071>073-080-081-089-090-097-098-010100-
   Southwest Minnesota

CITY           SKY/WX    TMP DP  RH WIND       PRES   REMARKS
MONTEVIDEO     CLEAR     25  12  58 CALM      30.05R
GRANITE FALLS  CLEAR     18  14  84 SW5       30.06S WCI  11
CANBY          CLEAR     25  15  66 SW5       30.05S WCI  19
MARSHALL       CLEAR     18  11  74 W9        30.05S WCI   7
REDWOOD FALLS  CLEAR     20  13  74 W8        30.05R WCI  10
OLIVIA         CLEAR     19  14  79 W7        30.04R WCI  10
PIPESTONE      CLEAR     19  16  86 W7        30.05S WCI  10
WINDOM         CLEAR     21  16  79 W13       30.05R WCI   9
WORTHINGTON    CLEAR     21  16  81 W12       30.07R WCI   9
JACKSON        CLEAR     23  16  74 NW12G20   30.06R WCI  12
TRACY          CLEAR     22  13  68 W6        30.04F WCI  14
SLAYTON        CLEAR     21  14  74 W10       30.05R WCI   9
$$
MNZ065>067-074>077-082>085-091>093-010100-
   South Central Minnesota

CITY           SKY/WX    TMP DP  RH WIND       PRES   REMARKS
MANKATO        CLEAR     21  16  81 NW18      30.03R WCI   6
NEW ULM        CLEAR     21  16  79 W14       30.05R WCI   8
ST JAMES       CLEAR     21  18  86 W16G22    30.05R WCI   7
FAIRMONT       CLEAR     23  16  74 NW18      30.05R WCI   9
GLENCOE        CLEAR     20  13  74 W15       30.02R WCI   7
FARIBAULT      CLEAR     21  18  86 W9G16     30.00R WCI  11
OWATONNA       CLEAR     21  16  79 W14G20    29.99R WCI   8
WASECA         CLEAR     21  18  86 W17       30.02R WCI   7
ALBERT LEA     CLEAR     21  18  86 NW8       30.00R WCI  12
$$
MNZ078>079-086>088-094>096-010100-
   Southeast Minnesota

CITY           SKY/WX    TMP DP  RH WIND       PRES   REMARKS
ROCHESTER      CLEAR     23  17  78 NW17      29.94R WCI   9
6HR MIN TEMP:  23; 6HR MAX TEMP:  32; 6HR PCP: TRACE;

RED WING       CLEAR     28  19  69 W14       29.94R WCI  17
STANTON        CLEAR     24  17  74 W15       29.97R WCI  11
DODGE CENTER   CLEAR     21  18  86 W15       29.97R WCI   8
WINONA         CLEAR     32  25  74 NW8       29.94R WCI  25
PRESTON        CLEAR     24  20  84 NW15      29.95R WCI  12
$$
ABBREVIATIONS USED IN REMARKS
   TC - TEMPERATURES IN CELSIUS
  WCI - WIND CHILL INDEX
   HX - HEAT INDEX
  VSB - VISIBILITY
$$



USA.gov is the U.S. government's official web portal to all federal, state and local government web resources and services.